#timestamp,LO_Frequency,Hit,StdDev 
1676689215.6,286046995.2,N
1676689235.4,286046999.6,N
1676689255.3,286046998.6,N
1676689275.1,286047000.1,N
1676689295.9,286047000.1,N
1676689315.7,286047001.1,N
1676689335.5,286046999.4,N
1676689355.4,286047000.9,N
1676689375.2,286046999.4,N
1676689395.0,286046999.3,N
1676689395.9,286046999.3,N
1676689415.8,286047000.8,N
1676689435.6,286047001.2,N
1676689455.5,286047002.0,N
1676689475.3,286047001.8,N
1676689495.1,286046998.3,N
1676689515.9,286047000.7,N
1676689535.7,286047000.0,N
1676689555.5,286046999.1,N
1676689575.4,286047000.7,N
1676689595.2,286046997.4,N
1676689615.1,286046997.9,N
1676689616.0,286046997.9,N
1676689635.8,286047001.0,N
1676689655.6,286047000.0,N
1676689675.5,286047002.8,N
1676689695.3,286046998.2,N
1676689715.1,286047001.1,N
1676689735.9,286046999.4,N
1676689755.7,286046998.5,N
1676689775.6,286046999.0,N
1676689795.4,286046999.2,N
1676689815.2,286046998.7,N
1676689835.1,286046996.9,N
1676689836.0,286046996.9,N
1676689855.8,286046996.9,N
1676689875.6,286046996.2,N
1676689895.5,286046999.3,N
1676689915.3,286046998.1,N
1676689935.1,286047000.9,N
1676689955.9,286047002.7,N
1676689975.7,286047002.0,N
1676689995.6,286047005.9,Y
1676690015.4,286047005.5,P
1676690035.2,286047003.6,N
1676690055.1,286047003.3,N
1676690056.0,286047003.3,N
1676690075.8,286047002.0,N
1676690095.7,286047000.1,N
1676690115.5,286047004.2,N
1676690135.3,286046999.7,N
1676690155.2,286046998.5,N
1676690175.0,286047001.2,N
1676690175.9,286047001.2,N
1676690195.8,286046998.9,N
1676690215.6,286047000.1,N
1676690235.4,286047000.9,N
1676690255.3,286047000.5,N
1676690275.1,286046999.9,N
1676690295.8,286046999.9,N
1676690315.7,286047000.9,N
1676690335.5,286046998.6,N
1676690355.4,286047001.2,N
1676690375.2,286047002.1,N
1676690395.0,286046998.1,N
1676690395.9,286046998.1,N
1676690415.8,286047000.6,N
1676690435.6,286046999.1,N
1676690455.4,286047001.2,N
1676690475.3,286046999.0,N
1676690495.1,286046999.5,N
1676690515.9,286047000.4,N
1676690535.7,286047001.0,N
1676690555.5,286046999.1,N
1676690575.4,286046999.2,N
1676690595.2,286046999.0,N
1676690615.0,286046998.1,N
1676690615.9,286046998.1,N
1676690635.8,286047000.2,N
1676690655.6,286047000.4,N
1676690675.5,286047000.0,N
1676690695.3,286046999.2,N
1676690715.1,286047000.8,N
1676690735.9,286047000.9,N
1676690755.7,286047000.0,N
1676690775.6,286047001.7,N
1676690795.4,286046999.8,N
1676690815.2,286047002.5,N
1676690835.1,286047000.8,N
1676690836.0,286047000.8,N
1676690855.8,286046999.2,N
1676690875.7,286047000.9,N
1676690895.5,286047004.0,Y
1676690915.3,286047001.4,P
1676690935.2,286047001.4,N
1676690955.0,286047004.3,P
1676690955.9,286047004.3,N
1676690975.8,286047005.4,Y
1676690995.6,286047004.1,P
1676691015.5,286047004.3,P
1676691035.3,286046998.2,N
1676691055.1,286047000.8,N
1676691075.9,286047001.0,N
1676691095.7,286046998.9,N
1676691115.5,286046996.6,N
1676691135.4,286046996.6,N
1676691155.2,286046996.7,N
1676691175.1,286046995.0,N
1676691176.0,286046995.0,N
1676691195.8,286046995.2,N
1676691215.6,286046996.8,N
1676691235.5,286046995.8,N
1676691255.3,286046992.3,N
1676691275.1,286046992.2,N
1676691295.9,286046995.1,N
1676691315.7,286046997.2,N
1676691335.6,286046999.3,N
1676691355.4,286046997.4,N
1676691375.2,286046997.2,N
1676691395.1,286046995.7,N
1676691396.0,286046995.7,N
1676691415.8,286046999.3,N
1676691435.6,286046998.1,N
1676691455.5,286046998.8,N
1676691475.3,286047001.2,N
1676691495.2,286047004.1,N
1676691515.9,286047003.7,N
1676691535.7,286046999.8,N
1676691555.6,286047001.2,N
1676691575.4,286046999.2,N
1676691595.3,286047001.0,N
1676691615.1,286046998.4,N
1676691616.0,286046998.4,N
1676691635.8,286046998.5,N
1676691655.7,286047000.9,N
1676691675.5,286046995.5,N
1676691695.3,286046997.8,N
1676691715.2,286046996.7,N
1676691735.0,286046997.7,N
1676691735.9,286046997.7,N
1676691755.8,286046997.7,N
1676691775.6,286046998.8,N
1676691795.4,286046998.8,N
1676691815.3,286046996.5,N
1676691835.1,286047000.8,N
1676691855.9,286046999.7,N
1676691875.7,286047000.3,N
1676691895.5,286047000.5,N
1676691915.4,286046998.8,N
1676691935.2,286046996.0,N
1676691955.1,286046995.5,N
1676691956.0,286046995.5,N
1676691975.8,286046997.8,N
1676691995.6,286047001.1,N
1676692015.5,286047000.4,N
1676692035.3,286046999.8,N
1676692055.1,286046998.8,N
1676692075.9,286046999.3,N
1676692095.7,286047002.3,N
1676692115.6,286047001.0,N
1676692135.4,286047001.1,N
1676692155.2,286046998.1,N
1676692175.1,286047000.0,N
1676692176.0,286047000.0,N
1676692195.8,286046998.1,N
1676692215.7,286047000.8,N
1676692235.5,286047001.1,N
1676692255.3,286046997.3,N
1676692275.2,286046999.0,N
1676692295.0,286046997.6,N
1676692295.9,286046997.6,N
1676692315.7,286046996.5,N
1676692335.6,286046993.4,Y
1676692355.4,286046997.4,P
1676692375.3,286046997.3,P
1676692395.1,286046993.7,P
1676692415.8,286046996.0,N
1676692435.7,286046997.5,N
1676692455.5,286046996.2,N
1676692475.4,286046996.0,N
1676692495.2,286046996.8,N
1676692515.0,286046995.7,Y
1676692515.9,286046995.7,P
1676692535.8,286046999.5,N
1676692555.6,286046998.0,N
1676692575.5,286046996.1,N
1676692595.3,286046995.3,Y
1676692615.1,286046997.7,P
1676692635.9,286046997.3,P
1676692655.7,286047000.6,N
1676692675.5,286047001.7,N
1676692695.4,286047000.4,N
1676692715.2,286046998.3,N
1676692735.1,286047002.3,N
1676692736.0,286047002.3,N
1676692755.8,286047000.6,N
1676692775.6,286047001.8,N
1676692795.5,286047003.6,N
